Tacoma, WA

1:22 PM PDT on April 28, 2017 (GMT -0700)
McChord Air Force Base

Weather History for KTCM - January, 2012

Change the Weather History Date:

Wednesday, January 18, 2012

  Actual Average Record
Temperature  
Mean Temperature 30 °F -  
Max Temperature 32 °F 45 °F 62 °F (2005)
Min Temperature 29 °F 33 °F 16 °F (1993)
Degree Days  
Heating Degree Days 34    
Moisture  
Dew Point 30 °F    
Average Humidity 98    
Maximum Humidity 100    
Minimum Humidity 93    
Precipitation  
Precipitation 0.58 in - - ()
Snow  
Snow 0.00 in - - ()
Snow Depth 6.00 in    
Sea Level Pressure  
Sea Level Pressure 29.74 in    
Wind  
Wind Speed 5 mph (NNE)    
Max Wind Speed 15 mph    
Max Gust Speed 18 mph    
Visibility 3 miles    
Events Fog , Rain , Snow    
Averages and records for this station are not official NWS values.
T = Trace of Precipitation, MM = Missing Value Source: NWS Daily Summary

Daily Weather History Graph

Daily Weather History Graph

Search for Another Location

Airport or City:

Trip Planner

Search our weather history database for the weather conditions in past years. The results will help you decide how hot, cold, wet, or windy it might be!

Date:

Astronomy

Jan. 18, 2012 Rise Set
Actual Time 7:49 AM PST 4:51 PM PST
Civil Twilight 7:15 AM PST 5:25 PM PST
Nautical Twilight 6:38 AM PST 6:02 PM PST
Astronomical Twilight 6:01 AM PST 6:39 PM PST
Moon 3:27 AM PST (1/18) 12:31 PM PST (1/18)
Length of Visible Light 10h 09m
Length of Day
9h 01m
Waning Crescent, 23% of the Moon is Illuminated
Jan 18
Waning Crescent
Jan 22
New
Jan 30
First Quarter
Feb 7
Full
Feb 14
Last Quarter

Hourly Weather History & Observations

Time (PST) Temp. Windchill Dew Point Humidity Pressure Visibility Wind Dir Wind Speed Gust Speed Precip Events Conditions
12:20 AM 32.0 °F - 30.2 °F 93% 29.98 in 10.0 mi Calm Calm - N/A   Mostly Cloudy
12:36 AM 32.0 °F 26.4 °F 30.2 °F 93% 29.98 in 9.0 mi South 5.8 mph - N/A Snow Light Snow
12:55 AM 31.3 °F 23.9 °F 30.4 °F 96% 29.98 in 6.0 mi South 8.1 mph - 0.00 in Snow Light Snow
1:07 AM 30.2 °F 22.6 °F 30.2 °F 100% 29.97 in 7.0 mi South 8.1 mph - N/A Snow Light Snow
1:38 AM 30.2 °F 24.3 °F 30.2 °F 100% 29.98 in 2.5 mi South 5.8 mph - N/A Snow Light Snow
1:39 AM 30.2 °F 24.3 °F 30.2 °F 100% 29.97 in 2.5 mi South 5.8 mph - N/A Snow Light Snow
1:42 AM 30.2 °F 24.3 °F 30.2 °F 100% 29.97 in 2.5 mi South 5.8 mph - N/A Snow Light Snow
1:46 AM 30.2 °F 24.3 °F 30.2 °F 100% 29.97 in 3.0 mi South 5.8 mph - N/A Snow Light Snow
1:47 AM 30.2 °F 25.4 °F 30.2 °F 100% 29.97 in 3.0 mi South 4.6 mph - N/A Snow Light Snow
1:48 AM 30.2 °F 25.4 °F 30.2 °F 100% 29.97 in 2.5 mi South 4.6 mph - N/A Snow Light Snow
1:49 AM 30.2 °F 25.4 °F 30.2 °F 100% 29.97 in 3.0 mi South 4.6 mph - N/A Snow Light Snow
1:55 AM 30.2 °F 25.4 °F 30.0 °F 99% 29.97 in 2.5 mi SSE 4.6 mph - 0.01 in Snow Light Snow
1:56 AM 30.2 °F 25.4 °F 30.2 °F 100% 29.97 in 2.5 mi SSE 4.6 mph - N/A Snow Light Snow
2:00 AM 30.2 °F 24.3 °F 30.2 °F 100% 29.97 in 3.0 mi SSE 5.8 mph - N/A Snow Light Snow
2:02 AM 30.2 °F 25.4 °F 30.2 °F 100% 29.96 in 2.5 mi SSE 4.6 mph - N/A Snow Light Snow
2:06 AM 30.2 °F 24.3 °F 30.2 °F 100% 29.97 in 3.0 mi SSE 5.8 mph - N/A Snow Light Snow
2:19 AM 30.2 °F 24.3 °F 30.2 °F 100% 29.96 in 6.0 mi SSE 5.8 mph - N/A Snow Light Snow
2:44 AM 30.2 °F - 28.4 °F 93% 29.95 in 2.5 mi Calm Calm - N/A Snow Light Snow
2:47 AM 30.2 °F - 28.4 °F 93% 29.95 in 2.0 mi Calm Calm - N/A Snow Light Snow
2:49 AM 30.2 °F - 28.4 °F 93% 29.95 in 2.0 mi Calm Calm - N/A Snow Light Snow
2:50 AM 30.2 °F - 28.4 °F 93% 29.95 in 1.8 mi Calm Calm - N/A Snow Light Snow
2:51 AM 30.2 °F - 28.4 °F 93% 29.95 in 1.8 mi Calm Calm - N/A Snow Light Snow
2:55 AM 29.7 °F - 29.5 °F 99% 29.95 in 1.5 mi Calm Calm - 0.01 in Snow Light Snow
3:01 AM 30.2 °F - 30.2 °F 100% 29.94 in 1.5 mi Calm Calm - N/A Snow Light Snow
3:08 AM 30.2 °F - 30.2 °F 100% 29.94 in 1.5 mi Calm Calm - N/A Snow Light Snow
3:19 AM 30.2 °F 26.7 °F 30.2 °F 100% 29.93 in 1.5 mi East 3.5 mph - N/A Snow Light Snow
3:40 AM 30.2 °F 26.7 °F 30.2 °F 100% 29.91 in 1.0 mi NE 3.5 mph - N/A Snow Light Snow
3:55 AM 29.8 °F 26.3 °F 29.7 °F 99% 29.90 in 1.0 mi ENE 3.5 mph - 0.02 in Snow Light Snow
3:58 AM 30.2 °F 26.7 °F 30.2 °F 100% 29.90 in 1.2 mi ENE 3.5 mph - N/A Snow Light Snow
4:00 AM 30.2 °F 26.7 °F 30.2 °F 100% 29.90 in 1.0 mi NE 3.5 mph - N/A Snow Light Snow
4:01 AM 30.2 °F 26.7 °F 30.2 °F 100% 29.90 in 1.0 mi NE 3.5 mph - N/A Snow Light Snow
4:10 AM 30.2 °F 25.4 °F 30.2 °F 100% 29.89 in 0.8 mi NE 4.6 mph - N/A Snow Light Snow
4:16 AM 30.2 °F 26.7 °F 30.2 °F 100% 29.88 in 1.0 mi NE 3.5 mph - N/A Snow Light Snow
4:26 AM 30.2 °F 25.4 °F 30.2 °F 100% 29.87 in 1.0 mi NNE 4.6 mph - N/A Snow Light Snow
4:49 AM 30.2 °F 24.3 °F 30.2 °F 100% 29.86 in 0.8 mi NE 5.8 mph - N/A Snow Light Snow
4:55 AM 29.8 °F 23.9 °F 29.7 °F 99% 29.85 in 0.8 mi NE 5.8 mph - 0.01 in Snow Light Snow
5:12 AM 30.2 °F 24.3 °F 30.2 °F 100% 29.83 in 0.8 mi NE 5.8 mph - N/A Snow Light Snow
5:17 AM 30.2 °F 24.3 °F 30.2 °F 100% 29.82 in 0.8 mi NNE 5.8 mph - N/A Snow Light Snow
5:26 AM 30.2 °F 23.4 °F 30.2 °F 100% 29.81 in 1.0 mi NNE 6.9 mph - N/A Snow Light Snow
5:40 AM 30.2 °F 24.3 °F 30.2 °F 100% 29.79 in 0.8 mi NE 5.8 mph - N/A Snow Light Snow
5:55 AM 30.0 °F 23.2 °F 29.8 °F 99% 29.78 in 0.8 mi NE 6.9 mph - 0.01 in Snow Light Snow
5:57 AM 30.2 °F 21.9 °F 30.2 °F 100% 29.77 in 1.0 mi NE 9.2 mph - N/A Snow Light Snow
6:11 AM 30.2 °F 21.3 °F 30.2 °F 100% 29.75 in 1.2 mi NNE 10.4 mph - N/A Snow Light Snow
6:18 AM 30.2 °F 20.8 °F 30.2 °F 100% 29.73 in 1.5 mi NNE 11.5 mph - N/A Snow Light Snow
6:27 AM 30.2 °F 21.3 °F 30.2 °F 100% 29.73 in 1.2 mi NNE 10.4 mph - N/A Snow Light Snow
6:31 AM 30.2 °F 21.3 °F 30.2 °F 100% 29.73 in 1.0 mi NNE 10.4 mph - N/A Snow Light Snow
6:32 AM 30.2 °F 22.6 °F 30.2 °F 100% 29.73 in 1.2 mi NE 8.1 mph - N/A Snow Light Snow
6:55 AM 30.2 °F 22.6 °F 29.7 °F 98% 29.70 in 1.2 mi NNE 8.1 mph - 0.00 in Snow Light Snow
7:02 AM 30.2 °F 22.6 °F 30.2 °F 100% 29.70 in 1.5 mi North 8.1 mph - N/A Snow Light Snow
7:04 AM 30.2 °F 21.9 °F 30.2 °F 100% 29.70 in 1.5 mi North 9.2 mph - N/A Snow Light Snow
7:14 AM 30.2 °F 23.4 °F 30.2 °F 100% 29.69 in 1.2 mi NNE 6.9 mph - N/A Snow Light Snow
7:15 AM 30.2 °F 23.4 °F 30.2 °F 100% 29.69 in 1.0 mi NNE 6.9 mph - N/A Snow Light Snow
7:16 AM 30.2 °F 23.4 °F 30.2 °F 100% 29.68 in 1.0 mi NNE 6.9 mph - N/A Snow Light Snow
7:25 AM 30.2 °F 24.3 °F 30.2 °F 100% 29.66 in 0.8 mi NE 5.8 mph - N/A Snow Light Snow
7:26 AM 30.2 °F 24.3 °F 30.2 °F 100% 29.66 in 0.8 mi NE 5.8 mph - N/A Snow Light Snow
7:29 AM 30.2 °F 23.4 °F 30.2 °F 100% 29.66 in 0.8 mi NNE 6.9 mph - N/A Snow Light Snow
7:30 AM 30.2 °F 22.6 °F 30.2 °F 100% 29.66 in 1.0 mi NNE 8.1 mph - N/A Snow Light Snow
7:34 AM 30.2 °F 23.4 °F 30.2 °F 100% 29.65 in 1.0 mi North 6.9 mph - N/A Snow Light Snow
7:36 AM 30.2 °F 22.6 °F 30.2 °F 100% 29.65 in 1.2 mi North 8.1 mph - N/A Snow Light Snow
7:46 AM 30.2 °F 23.4 °F 30.2 °F 100% 29.65 in 1.0 mi NNE 6.9 mph - N/A Snow Light Snow
7:48 AM 30.2 °F 23.4 °F 30.2 °F 100% 29.65 in 0.8 mi NNE 6.9 mph - N/A Snow Light Snow
7:52 AM 30.2 °F 22.6 °F 30.2 °F 100% 29.65 in 0.5 mi NNE 8.1 mph - N/A Fog , Snow Light Freezing Fog
7:54 AM 30.2 °F 21.9 °F 30.2 °F 100% 29.65 in 0.5 mi NNE 9.2 mph - N/A Fog , Snow Light Freezing Fog
7:55 AM 29.8 °F 22.2 °F 29.3 °F 98% 29.65 in 0.5 mi NNE 8.1 mph - 0.01 in Fog , Snow Light Freezing Fog
7:59 AM 30.2 °F 22.6 °F 30.2 °F 100% 29.65 in 0.8 mi North 8.1 mph - N/A Snow Light Snow
8:05 AM 30.2 °F 23.4 °F 30.2 °F 100% 29.65 in 0.8 mi NNE 6.9 mph - N/A Snow Light Snow
8:08 AM 30.2 °F 22.6 °F 30.2 °F 100% 29.65 in 0.5 mi North 8.1 mph - N/A Fog , Snow Light Freezing Fog
8:09 AM 30.2 °F 22.6 °F 30.2 °F 100% 29.64 in 0.5 mi North 8.1 mph - N/A Fog , Snow Light Freezing Fog
8:12 AM 30.2 °F 23.4 °F 30.2 °F 100% 29.64 in 0.5 mi North 6.9 mph - N/A Fog , Snow Light Freezing Fog
8:13 AM 30.2 °F 23.4 °F 30.2 °F 100% 29.64 in 0.8 mi North 6.9 mph - N/A Snow Light Snow
8:20 AM 30.2 °F 23.4 °F 30.2 °F 100% 29.64 in 0.8 mi North 6.9 mph - N/A Snow Light Snow
8:23 AM 30.2 °F 21.9 °F 30.2 °F 100% 29.63 in 0.8 mi North 9.2 mph - N/A Snow Light Snow
8:24 AM 30.2 °F 21.9 °F 30.2 °F 100% 29.63 in 1.0 mi North 9.2 mph - N/A Snow Light Snow
8:27 AM 30.2 °F 21.3 °F 30.2 °F 100% 29.63 in 1.2 mi North 10.4 mph - N/A Snow Light Snow
8:35 AM 30.2 °F 23.4 °F 30.2 °F 100% 29.63 in 1.2 mi North 6.9 mph - N/A Snow Light Snow
8:43 AM 30.2 °F 23.4 °F 30.2 °F 100% 29.63 in 1.0 mi North 6.9 mph - N/A Snow Light Snow
8:47 AM 30.2 °F 24.3 °F 30.2 °F 100% 29.63 in 0.8 mi North 5.8 mph - N/A Snow Light Snow
8:50 AM 30.2 °F 22.6 °F 30.2 °F 100% 29.63 in 0.8 mi North 8.1 mph - N/A Snow Light Snow
8:52 AM 30.2 °F 21.9 °F 30.2 °F 100% 29.63 in 0.8 mi North 9.2 mph - N/A Snow Light Snow
8:53 AM 30.2 °F 21.9 °F 30.2 °F 100% 29.63 in 1.0 mi North 9.2 mph - N/A Snow Light Snow
8:55 AM 30.7 °F 21.4 °F 30.6 °F 99% 29.64 in 1.0 mi North 11.5 mph - 0.04 in Snow Light Snow
8:56 AM 30.2 °F 20.8 °F 30.2 °F 100% 29.63 in 1.2 mi North 11.5 mph - N/A Snow Light Snow
9:05 AM 30.2 °F 19.3 °F 30.2 °F 100% 29.63 in 1.2 mi North 15.0 mph - N/A   Overcast
9:07 AM 30.2 °F 22.6 °F 30.2 °F 100% 29.63 in 2.5 mi NNE 8.1 mph - N/A   Overcast
9:15 AM 30.2 °F 22.6 °F 30.2 °F 100% 29.63 in 2.0 mi NNE 8.1 mph - N/A   Overcast
9:24 AM 32.0 °F 24.8 °F 30.2 °F 93% 29.64 in 2.5 mi NNE 8.1 mph - N/A Snow Light Snow
9:41 AM 32.0 °F 23.0 °F 30.2 °F 93% 29.62 in 2.0 mi NNE 11.5 mph - N/A Snow Light Snow
9:49 AM 32.0 °F 23.6 °F 30.2 °F 93% 29.62 in 2.0 mi NNE 10.4 mph 18.4 mph N/A Snow Light Snow
9:53 AM 32.0 °F 24.8 °F 30.2 °F 93% 29.62 in 2.5 mi NNE 8.1 mph 18.4 mph N/A Snow Snow
9:55 AM 31.1 °F 24.5 °F 30.6 °F 98% 29.62 in 2.5 mi NNE 6.9 mph - 0.05 in Snow Snow
9:57 AM 32.0 °F 24.8 °F 30.2 °F 93% 29.63 in 3.0 mi NNE 8.1 mph - N/A   Overcast
10:03 AM 32.0 °F 24.8 °F 30.2 °F 93% 29.63 in 3.0 mi NNE 8.1 mph - N/A   Overcast
10:09 AM 32.0 °F 23.6 °F 30.2 °F 93% 29.63 in 2.5 mi NNE 10.4 mph - N/A   Overcast
10:21 AM 32.0 °F 24.2 °F 30.2 °F 93% 29.64 in 3.0 mi NNE 9.2 mph - N/A   Overcast
10:39 AM 32.0 °F 24.2 °F 30.2 °F 93% 29.63 in 4.0 mi NE 9.2 mph - N/A   Overcast
10:46 AM 32.0 °F - 30.2 °F 93% 29.63 in 2.5 mi Calm Calm - N/A   Overcast
10:55 AM 31.6 °F 23.7 °F 30.9 °F 97% 29.64 in 2.5 mi NE 9.2 mph - 0.07 in   Overcast
11:03 AM 32.0 °F 23.6 °F 30.2 °F 93% 29.65 in 3.0 mi NNE 10.4 mph - N/A   Overcast
11:20 AM 32.0 °F 24.8 °F 32.0 °F 100% 29.62 in 2.5 mi NE 8.1 mph - N/A Snow Light Snow
11:29 AM 32.0 °F 24.8 °F 32.0 °F 100% 29.62 in 3.0 mi NNE 8.1 mph - N/A Snow Light Snow
11:33 AM 32.0 °F 25.6 °F 32.0 °F 100% 29.62 in 4.0 mi NE 6.9 mph - N/A Snow Light Snow
11:45 AM 32.0 °F 26.4 °F 32.0 °F 100% 29.62 in 3.0 mi NNE 5.8 mph - N/A Snow Light Snow
11:55 AM 31.8 °F 26.2 °F 31.1 °F 97% 29.62 in 3.0 mi NE 5.8 mph - 0.05 in Snow Snow
11:57 AM 32.0 °F 26.4 °F 30.2 °F 93% 29.63 in 2.5 mi Variable 5.8 mph - N/A Snow Snow
12:07 PM 32.0 °F 24.8 °F 32.0 °F 100% 29.63 in 3.0 mi NE 8.1 mph - N/A Snow Light Snow
12:24 PM 32.0 °F - 32.0 °F 100% 29.63 in 2.5 mi Calm Calm - N/A Snow Light Snow
12:30 PM 32.0 °F 24.2 °F 32.0 °F 100% 29.64 in 2.0 mi NE 9.2 mph - N/A Snow Light Snow
12:36 PM 32.0 °F 24.8 °F 32.0 °F 100% 29.63 in 2.0 mi NE 8.1 mph - N/A Snow Light Snow
12:40 PM 32.0 °F 27.5 °F 32.0 °F 100% 29.63 in 2.0 mi NNE 4.6 mph - N/A Snow Light Snow
12:41 PM 32.0 °F 27.5 °F 32.0 °F 100% 29.63 in 2.5 mi NNE 4.6 mph - N/A Snow Light Snow
12:44 PM 32.0 °F 25.6 °F 32.0 °F 100% 29.63 in 2.5 mi NNE 6.9 mph - N/A Snow Light Snow
12:48 PM 32.0 °F 26.4 °F 32.0 °F 100% 29.63 in 2.5 mi North 5.8 mph - N/A Snow Light Snow
12:55 PM 32.0 °F 24.8 °F 31.5 °F 98% 29.63 in 2.5 mi NNE 8.1 mph - 0.06 in Snow Light Snow
12:56 PM 32.0 °F 25.6 °F 32.0 °F 100% 29.63 in 2.5 mi Variable 6.9 mph - N/A Snow Light Snow
1:05 PM 32.0 °F 24.8 °F 32.0 °F 100% 29.63 in 2.5 mi NNE 8.1 mph - N/A Snow Light Snow
1:12 PM 32.0 °F 26.4 °F 32.0 °F 100% 29.64 in 2.5 mi NNE 5.8 mph - N/A Snow Light Snow
1:14 PM 32.0 °F 24.2 °F 32.0 °F 100% 29.63 in 3.0 mi NE 9.2 mph - N/A Snow Light Snow
1:16 PM 32.0 °F 24.2 °F 32.0 °F 100% 29.63 in 2.5 mi NNE 9.2 mph - N/A Snow Light Snow
1:19 PM 32.0 °F 23.0 °F 32.0 °F 100% 29.63 in 2.5 mi NNE 11.5 mph - N/A Rain Light Freezing Rain
1:32 PM 32.0 °F 24.2 °F 32.0 °F 100% 29.63 in 3.0 mi NNE 9.2 mph - N/A Snow Light Snow
1:47 PM 32.0 °F 25.6 °F 32.0 °F 100% 29.63 in 3.0 mi NE 6.9 mph 17.3 mph N/A Snow Light Snow
1:48 PM 32.0 °F 27.5 °F 32.0 °F 100% 29.63 in 2.5 mi ENE 4.6 mph 17.3 mph N/A Snow Light Snow
1:55 PM 31.8 °F 23.3 °F 31.3 °F 98% 29.64 in 2.5 mi NNE 10.4 mph - 0.05 in Snow Light Snow
1:57 PM 32.0 °F 27.5 °F 32.0 °F 100% 29.63 in 3.0 mi Variable 4.6 mph - N/A Snow Light Snow
2:00 PM 32.0 °F 24.8 °F 32.0 °F 100% 29.63 in 3.0 mi NE 8.1 mph - N/A Snow Light Snow
2:07 PM 32.0 °F 25.6 °F 32.0 °F 100% 29.63 in 3.0 mi Variable 6.9 mph - N/A Snow Light Snow
2:55 PM 32.0 °F 25.6 °F 31.5 °F 98% 29.66 in 3.0 mi NNE 6.9 mph - 0.04 in Snow Light Snow
3:11 PM 32.0 °F 26.4 °F 30.2 °F 93% 29.65 in 2.5 mi North 5.8 mph - N/A Snow Light Snow
3:17 PM 32.0 °F 25.6 °F 30.2 °F 93% 29.66 in 2.5 mi NNE 6.9 mph - N/A Snow Light Snow
3:18 PM 32.0 °F 24.8 °F 30.2 °F 93% 29.66 in 3.0 mi NNE 8.1 mph - N/A Snow Light Snow
3:55 PM 31.6 °F 28.3 °F 31.1 °F 98% 29.66 in 4.0 mi NNE 3.5 mph - 0.03 in Snow Light Snow
4:55 PM 31.5 °F 26.8 °F 30.9 °F 98% 29.69 in 4.0 mi NNE 4.6 mph - 0.02 in Snow Light Snow
5:07 PM 32.0 °F 28.7 °F 32.0 °F 100% 29.70 in 5.0 mi NNE 3.5 mph - N/A Snow Light Snow
5:17 PM 32.0 °F 28.7 °F 30.2 °F 93% 29.70 in 6.0 mi NNE 3.5 mph - N/A Snow Light Snow
5:36 PM 32.0 °F 26.4 °F 30.2 °F 93% 29.72 in 3.0 mi North 5.8 mph - N/A Snow Light Snow
5:55 PM 31.1 °F 26.4 °F 30.9 °F 99% 29.73 in 5.0 mi NNE 4.6 mph - 0.03 in Snow Light Snow
5:56 PM 32.0 °F 27.5 °F 30.2 °F 93% 29.73 in 5.0 mi NNE 4.6 mph - N/A Snow Light Snow
6:29 PM 32.0 °F 27.5 °F 30.2 °F 93% 29.73 in 4.0 mi NNE 4.6 mph - N/A Snow Light Snow
6:37 PM 32.0 °F - 30.2 °F 93% 29.74 in 5.0 mi Calm Calm - N/A Snow Light Snow
6:49 PM 32.0 °F 27.5 °F 30.2 °F 93% 29.75 in 5.0 mi NNE 4.6 mph - N/A Snow Light Snow
6:55 PM 31.1 °F 27.7 °F 30.7 °F 99% 29.75 in 4.0 mi NE 3.5 mph - 0.03 in Snow Light Snow
6:58 PM 32.0 °F - 30.2 °F 93% 29.75 in 4.0 mi Calm Calm - N/A Snow Light Snow
7:01 PM 32.0 °F - 30.2 °F 93% 29.75 in 3.0 mi Calm Calm - N/A Snow Light Snow
7:04 PM 32.0 °F - 30.2 °F 93% 29.75 in 2.5 mi Calm Calm - N/A Snow Light Snow
7:10 PM 32.0 °F - 30.2 °F 93% 29.76 in 3.0 mi Calm Calm - N/A Snow Light Snow
7:12 PM 32.0 °F - 30.2 °F 93% 29.76 in 3.0 mi Calm Calm - N/A Snow Light Snow
7:16 PM 32.0 °F 28.7 °F 30.2 °F 93% 29.75 in 3.0 mi ENE 3.5 mph - N/A Snow Light Snow
7:22 PM 30.2 °F - 30.2 °F 100% 29.76 in 3.0 mi Calm Calm - N/A Snow Light Snow
7:50 PM 30.2 °F - 30.2 °F 100% 29.76 in 6.0 mi Calm Calm - N/A Snow Light Snow
7:55 PM 30.7 °F 27.3 °F 30.2 °F 98% 29.76 in 7.0 mi NNE 3.5 mph - 0.02 in Rain , Snow Light Freezing Rain
8:02 PM 32.0 °F 28.7 °F 30.2 °F 93% 29.77 in 6.0 mi NE 3.5 mph - N/A Rain , Snow Light Freezing Rain
8:30 PM 30.2 °F 26.7 °F 30.2 °F 100% 29.78 in 5.0 mi NNE 3.5 mph - N/A   Light Freezing Drizzle
8:55 PM 30.6 °F - 30.0 °F 98% 29.78 in 5.0 mi Calm Calm - 0.01 in   Light Freezing Drizzle
9:00 PM 30.2 °F - 30.2 °F 100% 29.78 in 4.0 mi Calm Calm - N/A   Light Freezing Drizzle
9:03 PM 30.2 °F - 30.2 °F 100% 29.78 in 4.0 mi Calm Calm - N/A   Light Freezing Drizzle
9:36 PM 30.2 °F 26.7 °F 30.2 °F 100% 29.79 in 4.0 mi NE 3.5 mph - N/A   Overcast
9:42 PM 30.2 °F 26.7 °F 30.2 °F 100% 29.79 in 5.0 mi NNE 3.5 mph - N/A   Light Freezing Drizzle
9:55 PM 30.2 °F - 29.7 °F 98% 29.79 in 6.0 mi Calm Calm - 0.00 in   Light Freezing Drizzle
10:33 PM 30.2 °F - 30.2 °F 100% 29.80 in 6.0 mi Calm Calm - N/A   Light Freezing Drizzle
10:38 PM 30.2 °F - 30.2 °F 100% 29.80 in 5.0 mi Calm Calm - N/A   Light Freezing Drizzle
10:47 PM 30.2 °F - 30.2 °F 100% 29.81 in 5.0 mi Calm Calm - N/A   Light Freezing Drizzle
10:55 PM 30.0 °F - 29.5 °F 98% 29.81 in 5.0 mi Calm Calm - 0.01 in   Light Freezing Drizzle
11:05 PM 30.2 °F - 30.2 °F 100% 29.81 in 5.0 mi Calm Calm - N/A   Overcast
11:09 PM 30.2 °F 26.7 °F 30.2 °F 100% 29.81 in 5.0 mi NNE 3.5 mph - N/A   Light Freezing Drizzle
11:55 PM 29.5 °F - 29.1 °F 99% 29.80 in 5.0 mi Calm Calm - 0.00 in   Light Freezing Drizzle